Lamar, CO

7:22 AM MDT on March 23, 2017 (GMT -0600)
Lamar Municipal

Weather History for KLAA - May, 2013

Change the Weather History Date:

Tuesday, May 14, 2013

  Actual Average Record
Temperature  
Mean Temperature 76 °F 62 °F  
Max Temperature 97 °F 78 °F 97 °F (2013)
Min Temperature 54 °F 45 °F 28 °F (2014)
Degree Days  
Heating Degree Days 0 5  
Month to date heating degree days 153 91  
Since 1 July heating degree days 5473 5491  
Cooling Degree Days 11 1  
Month to date cooling degree days 18 12  
Year to date cooling degree days 20 17  
Growing Degree Days 25 (Base 50)    
Moisture  
Dew Point 32 °F    
Average Humidity 27    
Maximum Humidity 47    
Minimum Humidity 7    
Precipitation  
Precipitation 0.00 in 0.06 in 1.02 in (1923)
Month to date precipitation 0.18  
Year to date precipitation 0.51  
Sea Level Pressure  
Sea Level Pressure 29.73 in    
Wind  
Wind Speed 10 mph (SW)    
Max Wind Speed 23 mph    
Max Gust Speed 30 mph    
Visibility 10 miles    
Events      
T = Trace of Precipitation, MM = Missing Value Source: NWS Daily Summary

Daily Weather History Graph

Daily Weather History Graph

Search for Another Location

Airport or City:

Trip Planner

Search our weather history database for the weather conditions in past years. The results will help you decide how hot, cold, wet, or windy it might be!

Date:

Astronomy

May. 14, 2013 Rise Set
Actual Time 5:40 AM MDT 7:53 PM MDT
Civil Twilight 5:11 AM MDT 8:23 PM MDT
Nautical Twilight 4:35 AM MDT 8:59 PM MDT
Astronomical Twilight 3:55 AM MDT 9:39 PM MDT
Moon 9:22 AM MDT (5/14) 11:43 PM MDT (5/14)
Length of Visible Light 15h 12m
Length of Day
14h 13m
Waxing Crescent, 19% of the Moon is Illuminated
May 14
Waxing Crescent
May 17
First Quarter
May 24
Full
May 31
Last Quarter
Jun 8
New

Hourly Weather History & Observations

Time (MDT) Temp. Dew Point Humidity Pressure Visibility Wind Dir Wind Speed Gust Speed Precip Events Conditions
12:53 AM 63.0 °F 32.0 °F 31% 29.81 in 10.0 mi SSW 11.5 mph - N/A   Clear
1:53 AM 59.0 °F 33.1 °F 38% 29.81 in 10.0 mi SW 11.5 mph - N/A   Clear
2:53 AM 57.9 °F 35.1 °F 42% 29.81 in 10.0 mi SSW 12.7 mph - N/A   Clear
3:53 AM 57.0 °F 37.0 °F 47% 29.81 in 10.0 mi SW 8.1 mph - N/A   Clear
4:53 AM 55.9 °F 36.0 °F 47% 29.81 in 10.0 mi WSW 6.9 mph - N/A   Clear
5:53 AM 57.0 °F 35.1 °F 44% 29.80 in 10.0 mi WSW 8.1 mph - N/A   Clear
6:53 AM 63.0 °F 35.1 °F 35% 29.81 in 10.0 mi WSW 9.2 mph - N/A   Clear
7:53 AM 69.1 °F 34.0 °F 27% 29.82 in 10.0 mi West 11.5 mph - N/A   Clear
8:53 AM 77.0 °F 36.0 °F 23% 29.82 in 10.0 mi WNW 10.4 mph - N/A   Clear
9:53 AM 84.9 °F 35.1 °F 17% 29.79 in 10.0 mi SW 9.2 mph - N/A   Clear
10:53 AM 90.0 °F 33.1 °F 13% 29.78 in 10.0 mi SW 6.9 mph 18.4 mph N/A   Clear
11:53 AM 91.9 °F 32.0 °F 12% 29.76 in 10.0 mi WSW 6.9 mph - N/A   Clear
12:53 PM 93.0 °F 28.9 °F 10% 29.71 in 10.0 mi SSW 10.4 mph - N/A   Clear
1:53 PM 93.9 °F 25.0 °F 8% 29.69 in 10.0 mi SSW 10.4 mph - N/A   Clear
2:53 PM 93.9 °F 24.1 °F 8% 29.67 in 10.0 mi SSW 6.9 mph - N/A   Clear
3:53 PM 95.0 °F 26.1 °F 9% 29.64 in 10.0 mi South 8.1 mph - N/A   Clear
4:53 PM 93.9 °F 24.1 °F 8% 29.63 in 10.0 mi SW 10.4 mph - N/A   Clear
5:53 PM 93.0 °F 21.0 °F 7% 29.62 in 10.0 mi SSW 10.4 mph - N/A   Clear
6:53 PM 88.0 °F 23.0 °F 9% 29.61 in 10.0 mi South 20.7 mph - N/A   Clear
7:53 PM 82.9 °F 25.0 °F 12% 29.63 in 10.0 mi South 15.0 mph - N/A   Clear
8:53 PM 78.1 °F 27.0 °F 15% 29.68 in 10.0 mi SW 10.4 mph - N/A   Clear
9:53 PM 77.0 °F 37.9 °F 24% 29.68 in 10.0 mi WSW 13.8 mph - N/A   Clear
10:53 PM 73.9 °F 39.9 °F 29% 29.68 in 10.0 mi West 5.8 mph - N/A   Clear
11:53 PM 68.0 °F 42.1 °F 39% 29.69 in 10.0 mi SW 11.5 mph - N/A   Clear